[[{"header":{"parameterUnit":"m.s-1","parameterCategory":1,"la1":30.2991,"la2":30.254,"lo1":-89.0895,"lo2":-89.0444,"dy":0.0017,"dx":0.0017,"nx":28,"ny":28,"refTime":"2025-08-07T09:00:00:Z","depth":0,"parameterNumber":2,"parameterNumberName":"U-component_of_WINDS"},"data":[0,0,0,0,0,0,0,0,0,0,0,0,0,0,0,0,0,0,0,0,0,0,0,0,0,0,0,0,0,0,0,0,0,0,0,0,0,0,0,0,0,0,0,0,0,0,0,0,0,0,0,0,0,0,0,0,0,0,-0.6862,-0.6861,0,-0.6751,-0.675,-0.6749,-0.6692,-0.6692,-0.6692,-0.6692,-0.6575,-0.6573,-0.657,0,0,0,0,0,0,0,0,0,0,0,0,0,-0.702,-0.7017,-0.6862,-0.686,-0.6859,-0.6752,-0.675,-0.6749,-0.6692,-0.6692,-0.6692,-0.6692,-0.6576,-0.6573,-0.6569,0,0,0,0,0,0,0,0,0,0,0,0,0,-0.6934,-0.7016,-0.6862,-0.6818,-0.6813,-0.6752,-0.675,-0.6748,-0.6692,-0.6692,-0.6692,-0.6692,-0.6578,-0.6573,-0.6569,-0.6543,0,0,-0.6555,-0.6553,0,0,0,0,0,0,0,0,-0.6939,-0.6929,-0.6826,-0.6821,-0.6815,-0.6735,-0.6763,-0.6679,-0.6692,-0.6738,-0.6692,-0.6691,-0.6629,-0.662,-0.6599,-0.6537,-0.6532,-0.6554,-0.6552,-0.655,-0.6548,0,0,0,0,0,0,0,-0.6945,-0.6933,-0.6818,-0.6824,-0.6818,-0.6802,-0.679,-0.6747,-0.6685,-0.6734,-0.6729,-0.6717,-0.6626,-0.6604,-0.6596,-0.653,-0.6555,-0.6551,-0.6548,-0.6546,-0.644,-0.644,0,0,0,0,0,0,-0.6959,-0.6938,-0.6821,-0.6815,-0.6878,-0.68,-0.6786,-0.6761,-0.6685,-0.6674,-0.6717,-0.6715,-0.6612,-0.6601,-0.6592,-0.6556,-0.655,-0.6546,-0.6543,-0.644,-0.644,-0.644,0,0,0,0,0,0,-0.6962,-0.6949,-0.6826,-0.6875,-0.6858,-0.6797,-0.6769,-0.6759,-0.6737,-0.6673,-0.6661,-0.6707,-0.6611,-0.6598,-0.6555,-0.6551,-0.6543,-0.6539,-0.6441,-0.644,-0.644,-0.6484,0,0,0,0,0,0,-0.6967,-0.6951,-0.6941,-0.6876,-0.6856,-0.6793,-0.6769,-0.6757,-0.673,-0.6725,-0.666,-0.6649,-0.661,-0.6562,-0.6551,-0.6544,-0.6536,-0.6441,-0.644,-0.644,-0.6482,-0.6485,-0.6487,0,0,0,0,0,-0.6973,-0.6957,-0.6941,-0.6927,-0.6843,-0.6792,-0.6781,-0.6738,-0.673,-0.6719,-0.6677,-0.6651,-0.6553,-0.6558,-0.6545,-0.6537,-0.6441,-0.6441,-0.644,-0.6481,-0.6485,-0.6487,0,0,0,0,0,0,-0.7022,-0.6948,-0.6929,-0.6891,-0.6849,-0.6783,-0.6768,-0.6743,-0.6701,-0.6698,-0.6645,-0.6631,-0.6593,-0.656,-0.6568,-0.6507,-0.6494,-0.6491,-0.653,-0.6533,-0.6535,-0.6543,-0.6532,0,0,0,0,0,-0.7029,-0.6995,-0.6931,-0.6904,-0.6884,-0.683,-0.6806,-0.6777,-0.673,-0.6711,-0.6667,-0.6622,-0.6581,-0.6555,-0.6514,-0.6477,-0.6462,-0.6465,-0.6468,-0.647,-0.6468,-0.6446,-0.6447,-0.644,-0.644,-0.644,0,0,-0.7042,-0.6997,-0.6979,-0.6913,-0.6877,-0.6842,-0.6815,-0.678,-0.6753,-0.6705,-0.6663,-0.6628,-0.6574,-0.6535,-0.6515,-0.6507,-0.6467,-0.647,-0.6472,-0.6469,-0.6446,-0.6447,-0.6447,-0.644,-0.644,-0.644,0,0,-0.7048,-0.7011,-0.6984,-0.6949,-0.6894,-0.6858,-0.6852,-0.679,-0.6765,-0.6722,-0.6685,-0.6652,-0.6583,-0.6546,-0.6518,-0.651,-0.6484,-0.6498,-0.6511,-0.649,-0.649,-0.649,-0.6487,-0.6486,-0.6496,-0.6496,-0.6496,0,-0.7071,-0.7018,-0.6974,-0.694,-0.6912,-0.6868,-0.684,-0.6807,-0.6742,-0.6723,-0.6715,-0.6627,-0.6587,-0.6538,-0.6536,-0.6515,-0.6505,-0.6505,-0.6494,-0.6494,-0.6493,-0.6489,-0.6488,-0.6498,-0.6498,-0.6498,-0.6498,0,-0.7049,-0.7013,-0.6998,-0.6937,-0.6907,-0.6876,-0.6826,-0.68,-0.6773,-0.6738,-0.6693,-0.6644,-0.6592,-0.6578,-0.6551,-0.6525,-0.6521,-0.6504,-0.649,-0.6497,-0.6492,-0.649,-0.6501,-0.65,-0.65,-0.6499,0,0,-0.7083,-0.6998,-0.6993,-0.6964,-0.6901,-0.6872,-0.6839,-0.6789,-0.6768,-0.6724,-0.6694,-0.6637,-0.662,-0.6589,-0.6557,-0.6538,-0.6534,-0.6523,-0.6521,-0.6527,-0.6502,-0.6515,-0.6514,-0.6517,-0.6516,-0.6516,-0.6506,0,-0.708,-0.702,-0.6979,-0.6934,-0.69,-0.6858,-0.6829,-0.6786,-0.6752,-0.6717,-0.6679,-0.6639,-0.6621,-0.6601,-0.6581,-0.6539,-0.6529,-0.6539,-0.6488,-0.6486,-0.6502,-0.6512,-0.6525,-0.6519,-0.6504,-0.6504,-0.6504,0,-0.7068,-0.7027,-0.698,-0.692,-0.6904,-0.6879,-0.6829,-0.6797,-0.6747,-0.6723,-0.6688,-0.6656,-0.6618,-0.6607,-0.6553,-0.6562,-0.6538,-0.6514,-0.6513,-0.6506,-0.6495,-0.6505,-0.6515,-0.6515,-0.65,-0.6501,-0.6501,0,-0.7098,-0.703,-0.6993,-0.697,-0.6899,-0.6882,-0.6852,-0.6802,-0.6775,-0.6731,-0.6712,-0.6665,-0.6638,-0.6602,-0.6557,-0.6553,-0.6507,-0.6493,-0.6486,-0.6487,-0.6478,-0.6479,-0.6485,-0.6463,-0.6463,-0.6463,-0.6463,0,-0.7099,-0.7071,-0.7005,-0.6982,-0.695,-0.6902,-0.6871,-0.6837,-0.6793,-0.6761,-0.6722,-0.6693,-0.6635,-0.6599,-0.6564,-0.6524,-0.6513,-0.6492,-0.6483,-0.6495,-0.6498,-0.6479,-0.6478,-0.6463,-0.6463,-0.6463,-0.6463,0,-0.7126,-0.7081,-0.7037,-0.6974,-0.6957,-0.6936,-0.6881,-0.6857,-0.6821,-0.6782,-0.677,-0.6712,-0.6668,-0.6619,-0.6558,-0.6534,-0.6496,-0.6484,-0.6514,-0.6508,-0.6504,-0.6505,-0.6497,-0.6493,-0.6475,-0.6476,-0.6476,0,-0.713,-0.7108,-0.7042,-0.7019,-0.699,-0.6953,-0.6925,-0.6876,-0.6849,-0.679,-0.6772,-0.6725,-0.6685,-0.6615,-0.6567,-0.652,-0.6505,-0.6506,-0.6498,-0.6511,-0.6505,-0.6507,-0.6504,-0.6508,-0.6509,-0.6509,-0.651,0,-0.714,-0.7119,-0.7081,-0.7035,-0.7003,-0.6964,-0.6923,-0.6906,-0.6849,-0.6819,-0.6774,-0.6743,-0.6681,-0.6634,-0.6581,-0.6547,-0.6519,-0.6513,-0.6508,-0.6521,-0.6539,-0.6529,-0.652,-0.6513,-0.6512,-0.6512,-0.6512,-0.6512,-0.7155,-0.7134,-0.7085,-0.7043,-0.7008,-0.697,-0.6944,-0.6905,-0.6867,-0.6813,-0.6786,-0.6741,-0.6691,-0.6617,-0.6584,-0.6547,-0.6538,-0.6532,-0.6531,-0.653,-0.6533,-0.6545,-0.6537,-0.6537,-0.6537,-0.6537,-0.6537,0,-0.7164,-0.713,-0.7093,-0.7038,-0.7005,-0.6982,-0.6935,-0.6909,-0.687,-0.6826,-0.6787,-0.6734,-0.6688,-0.6637,-0.6588,-0.6568,-0.6553,-0.6556,-0.6557,-0.655,-0.6544,-0.6552,-0.6569,-0.6569,-0.6569,-0.6569,-0.6569,-0.6569,-0.7165,-0.7127,-0.71,-0.7044,-0.7009,-0.6966,-0.6941,-0.6906,-0.6871,-0.6814,-0.6776,-0.6743,-0.6696,-0.6643,-0.6599,-0.6585,-0.6569,-0.6576,-0.6558,-0.6553,-0.655,-0.6548,-0.6556,-0.6573,-0.6573,-0.6567,-0.6567,-0.6567]},{"header":{"parameterUnit":"m.s-1","parameterCategory":1,"la1":30.2991,"la2":30.254,"lo1":-89.0895,"lo2":-89.0444,"dy":0.0017,"dx":0.0017,"nx":28,"ny":28,"refTime":"2025-08-07T09:00:00:Z","depth":0,"parameterNumber":3,"parameterNumberName":"V-component_of_WINDS"},"data":[0,0,0,0,0,0,0,0,0,0,0,0,0,0,0,0,0,0,0,0,0,0,0,0,0,0,0,0,0,0,0,0,0,0,0,0,0,0,0,0,0,0,0,0,0,0,0,0,0,0,0,0,0,0,0,0,0,0,0.3258,0.3257,0,0.3152,0.3151,0.315,0.3056,0.3055,0.3054,0.3053,0.2943,0.2941,0.2939,0,0,0,0,0,0,0,0,0,0,0,0,0,0.3374,0.3372,0.3258,0.3256,0.3255,0.3153,0.3151,0.315,0.3056,0.3055,0.3053,0.3052,0.2944,0.2941,0.2939,0,0,0,0,0,0,0,0,0,0,0,0,0,0.3302,0.3372,0.3258,0.3196,0.3189,0.3153,0.3151,0.3149,0.3056,0.3055,0.3053,0.3052,0.2944,0.2942,0.2939,0.2954,0,0,0.293,0.2929,0,0,0,0,0,0,0,0,0.3306,0.3297,0.3206,0.32,0.3193,0.3116,0.3152,0.3084,0.3057,0.3107,0.3053,0.3051,0.3002,0.2994,0.2978,0.2949,0.2945,0.293,0.2928,0.2927,0.2926,0,0,0,0,0,0,0,0.3311,0.3301,0.3216,0.3205,0.3197,0.3172,0.316,0.3138,0.3065,0.3102,0.3095,0.3084,0.2998,0.2981,0.2975,0.2943,0.293,0.2927,0.2926,0.2925,0.2918,0.292,0,0,0,0,0,0,0.3326,0.3306,0.3219,0.3213,0.3246,0.3172,0.3158,0.3142,0.3065,0.3051,0.3086,0.308,0.2986,0.2978,0.297,0.2981,0.2927,0.2924,0.2923,0.2917,0.2919,0.292,0,0,0,0,0,0,0.3329,0.3319,0.3223,0.3257,0.3243,0.3171,0.3154,0.3141,0.3124,0.3052,0.3038,0.3082,0.2985,0.2974,0.2958,0.2976,0.2923,0.292,0.2915,0.2917,0.2919,0.3005,0,0,0,0,0,0,0.3333,0.3321,0.3327,0.3258,0.3242,0.3215,0.3155,0.314,0.312,0.3111,0.3045,0.3033,0.2983,0.2963,0.2956,0.2971,0.2918,0.2913,0.2916,0.2919,0.3,0.301,0.3018,0,0,0,0,0,0.3337,0.3356,0.3328,0.3318,0.3249,0.3216,0.3207,0.3149,0.3122,0.3126,0.308,0.3035,0.2976,0.2962,0.2953,0.2968,0.2912,0.2915,0.2918,0.2996,0.3008,0.3018,0,0,0,0,0,0,0.3428,0.3346,0.3314,0.3311,0.3271,0.32,0.3205,0.3164,0.3131,0.3125,0.3054,0.304,0.3031,0.2998,0.2985,0.2978,0.2937,0.2939,0.3,0.301,0.3019,0.3027,0.2916,0,0,0,0,0,0.3448,0.343,0.3358,0.3362,0.3344,0.3278,0.3262,0.3221,0.3177,0.3159,0.3111,0.307,0.3041,0.3024,0.2994,0.2995,0.2978,0.3001,0.301,0.3017,0.302,0.3015,0.3024,0.2932,0.2931,0.2931,0,0,0.3489,0.3441,0.3434,0.3379,0.3344,0.3325,0.3265,0.3248,0.3232,0.3156,0.3138,0.3102,0.305,0.3042,0.3036,0.3014,0.3041,0.3022,0.3029,0.3026,0.3019,0.3028,0.3036,0.2934,0.2933,0.2933,0,0,0.3553,0.3516,0.3514,0.348,0.3426,0.3382,0.3382,0.3316,0.3289,0.327,0.3211,0.3191,0.3145,0.3109,0.3085,0.3134,0.309,0.3126,0.3173,0.3169,0.3176,0.3182,0.3198,0.3204,0.3128,0.3128,0.3129,0,0.361,0.358,0.3519,0.3504,0.3481,0.3411,0.3408,0.3377,0.3317,0.3301,0.3278,0.3215,0.3176,0.3158,0.3169,0.3153,0.3148,0.3133,0.318,0.3186,0.319,0.3204,0.3211,0.3133,0.3132,0.3132,0.3131,0,0.3652,0.3632,0.3637,0.358,0.3557,0.3549,0.3484,0.3468,0.3429,0.3386,0.3366,0.3316,0.3273,0.3266,0.3227,0.3241,0.3229,0.3194,0.3152,0.3205,0.3217,0.3222,0.3139,0.3138,0.3136,0.3135,0,0,0.3772,0.368,0.3682,0.3655,0.359,0.3572,0.3559,0.3518,0.3505,0.3465,0.3451,0.3412,0.3378,0.3351,0.3307,0.3304,0.3343,0.3269,0.3267,0.3283,0.3353,0.3379,0.3386,0.3314,0.3315,0.3315,0.3356,0,0.3824,0.3798,0.3741,0.3733,0.3712,0.3644,0.3632,0.359,0.355,0.3525,0.348,0.3453,0.3411,0.3394,0.3388,0.334,0.3356,0.3336,0.3299,0.3298,0.3313,0.3393,0.3421,0.3462,0.3361,0.3362,0.3362,0,0.3882,0.3846,0.3836,0.377,0.3759,0.375,0.3706,0.3684,0.3634,0.3604,0.3573,0.3524,0.3505,0.3467,0.3438,0.3426,0.3407,0.338,0.338,0.3374,0.3333,0.3387,0.3474,0.348,0.3369,0.3369,0.3368,0,0.3969,0.3918,0.3904,0.3883,0.3806,0.38,0.3768,0.3716,0.3694,0.3655,0.364,0.3599,0.3577,0.3546,0.3487,0.3465,0.3464,0.3421,0.3437,0.3439,0.344,0.3441,0.3524,0.343,0.343,0.343,0.3429,0,0.4033,0.4029,0.3942,0.3933,0.3925,0.3859,0.3853,0.3814,0.3768,0.3749,0.3688,0.3671,0.3595,0.3569,0.3523,0.3505,0.3495,0.347,0.3457,0.3475,0.3478,0.3461,0.3456,0.3431,0.3431,0.343,0.343,0,0.4129,0.407,0.4051,0.3979,0.3961,0.3958,0.3896,0.3884,0.3839,0.3816,0.3807,0.3736,0.3702,0.364,0.3589,0.3557,0.3549,0.3528,0.3566,0.3558,0.3577,0.3576,0.3652,0.3658,0.3562,0.3563,0.3563,0,0.4173,0.4168,0.4096,0.4079,0.4049,0.4023,0.4,0.3933,0.3912,0.3853,0.3847,0.3809,0.3774,0.3723,0.3666,0.3625,0.3602,0.3632,0.3596,0.3613,0.3601,0.3602,0.36,0.364,0.3641,0.3643,0.3643,0,0.4258,0.4229,0.4198,0.4157,0.4131,0.4095,0.4056,0.4046,0.397,0.3948,0.3913,0.3886,0.3833,0.3794,0.3745,0.371,0.3663,0.3655,0.3656,0.3674,0.3696,0.3682,0.3587,0.3654,0.3653,0.3652,0.3651,0.3651,0.4328,0.432,0.4267,0.4234,0.4197,0.4162,0.4147,0.4099,0.4069,0.4021,0.3983,0.395,0.3897,0.3827,0.3794,0.3766,0.3744,0.3747,0.3747,0.3748,0.3755,0.3701,0.3757,0.3756,0.3756,0.3755,0.3755,0,0.4408,0.4371,0.4341,0.4288,0.4262,0.4221,0.4175,0.4155,0.4127,0.4082,0.4049,0.4007,0.3969,0.3908,0.3865,0.3854,0.3831,0.3844,0.3844,0.3836,0.3777,0.378,0.3863,0.3863,0.3863,0.3863,0.3863,0.3863,0.4447,0.443,0.4394,0.4357,0.4318,0.4286,0.4263,0.4229,0.4192,0.4149,0.4117,0.4078,0.4025,0.3977,0.3939,0.3922,0.3909,0.3928,0.3905,0.3851,0.3841,0.3831,0.3833,0.3926,0.3926,0.3966,0.3966,0.3966]}]]